Regional Weather Roundup
Issued by NWS

Home | Current Version | Previous Version | Graphics & Text | Print | Product List | Glossary On
Versions: 1 2 3 4 5 6 7 8 9 10 11 12 13 14 15 16 17 18 19 20 21 22 23 24 25 26 27 28 29 30 31 32 33 34 35 36 37 38 39 40 41 42 43 44 45 46 47 48 49 50
000
ASUS43 KLSX 220410
RWRMO

WEATHER SUMMARY FOR MISSOURI
NATIONAL WEATHER SERVICE SPRINGFIELD MO
1100 PM CDT FRI JUL 21 2017

NOTE: "FAIR" INDICATES FEW OR NO CLOUDS BELOW 12,000 FEET WITH NO
       SIGNIFICANT WEATHER AND/OR OBSTRUCTIONS TO VISIBILITY.
       CURRENT SKY AND/OR WEATHER CONDITIONS ARE NOT AVAILABLE FOR
       CHILLICOTHE AND FARMINGTON.

MOZ001>031-035>038-043-044-053-054-220500-
...NORTHERN AND WESTERN MISSOURI...

CITY           SKY/WX    TMP DP  RH WIND       PRES   REMARKS
KANSAS CTY INT CLEAR     87  73  62 S17       29.84R HX  94
KANSAS C DTWN  CLEAR     89  72  56 S15G25    29.83R HX  96
LEE`S SUMMIT   CLEAR     87  73  62 S16       29.87R HX  94
ST JOSEPH      CLEAR     87  74  64 S15G23    29.80R HX  95
CHILLICOTHE      N/A     86  74  67 S7        29.84R HX  94
KIRKSVILLE     CLEAR     86  73  65 SW9       29.85R HX  93

$$
MOZ066>068-077>081-088>096-101>105-220500-
...SOUTHWEST MISSOURI...

CITY           SKY/WX    TMP DP  RH WIND       PRES   REMARKS
SPRINGFIELD    CLEAR     81  71  71 S9        29.96R
JOPLIN         CLEAR     84  71  65 S10       29.94R
BRANSON        CLEAR     82  72  69 S5        30.00S

$$
MOZ032>034-039>042-045>050-055>058-069>072-220500-
...CENTRAL MISSOURI...

CITY           SKY/WX    TMP DP  RH WIND       PRES   REMARKS
COLUMBIA       CLEAR     83  69  62 SW10      29.90R
JEFFERSON CITY CLEAR     86  72  62 E3        29.88R HX  92
ROLLA          CLEAR     83  72  69 S9        29.93S
SEDALIA        CLEAR     85  71  63 S10       29.90R HX  90
WHITEMAN AFB   CLEAR     81  74  79 SW10      29.87R
WARRENSBURG    CLEAR     82  70  65 S8        29.87S
OSAGE BEACH    CLEAR     83  70  64 S6        29.92S

$$
MOZ051-052-059>065-220500-
...EAST CENTRAL MISSOURI...

CITY           SKY/WX    TMP DP  RH WIND       PRES   REMARKS
ST LOUIS INTL  PTCLDY    94  71  47 S12G22    29.90R HX 101
SPIRIT OF STL  CLEAR     88  73  61 S8        29.88R HX  95
ST CHARLES     CLEAR     83  77  82 CALM      29.87R HX  92

$$
MOZ072>076-082>087-097>100-106>115-220500-
...SOUTH CENTRAL AND SOUTHEAST MISSOURI...

CITY           SKY/WX    TMP DP  RH WIND       PRES   REMARKS
CAPE GIRARDEAU CLEAR     82  75  79 S8        29.94S
FARMINGTON     CLEAR     82  75  79 S6        29.97R
POPLAR BLUFF   CLEAR     82  79  90 S5        29.95R HX  92
WEST PLAINS    CLEAR     84  72  67 S8        30.00S

$$




USA.gov is the U.S. government's official web portal to all federal, state and local government web resources and services.